Regional Weather Roundup
Issued by NWS

Home | Current Version | Previous Version | Text Only | Print | Product List | Glossary On
Versions: 1 2 3 4 5 6 7 8 9 10 11 12 13 14 15 16 17 18 19 20 21 22 23 24 25 26 27 28 29 30 31 32 33 34 35 36 37 38 39 40 41 42 43 44 45 46 47 48 49 50
000
ASUS43 KBIS 231910
RWRND

NORTH DAKOTA REGIONAL WEATHER ROUNDUP
NATIONAL WEATHER SERVICE BISMARCK ND
200 PM CDT MON OCT 23 2017

NOTE: "FAIR" INDICATES FEW OR NO CLOUDS BELOW 12,000 FEET WITH NO
SIGNIFICANT WEATHER AND/OR OBSTRUCTIONS TO VISIBILITY.


NDZ001>003-009>011-017-232000-
NORTHWEST NORTH DAKOTA

CITY           SKY/WX    TMP DP  RH WIND       PRES   REMARKS
WILLISTON      MOSUNNY   56  27  32 NW31G44   30.22R
MINOT          CLOUDY    54  35  48 W24G37    30.07S
MINOT AFB      CLOUDY    52  36  53 NW30G37   30.05F
$$

NDZ018>021-031>035-040>046-232000-
SOUTHWEST NORTH DAKOTA

CITY           SKY/WX    TMP DP  RH WIND       PRES   REMARKS
BISMARCK       PTSUNNY   54  35  48 NW17G28   30.12F
DICKINSON      MOSUNNY   56  27  32 NW30G40   30.18R
GARRISON         N/A     53  33  46 NW33G44   30.10S
HETTINGER ARPT PTSUNNY   55  24  30 NW37G49   30.22S
$$

NDZ004>008-012>016-024-026-027-054-232000-
NORTHEAST NORTH DAKOTA

CITY           SKY/WX    TMP DP  RH WIND       PRES   REMARKS
GRAND FORKS    MOSUNNY   55  34  45 N18G28    29.92F
GRND FRKS AFB  SUNNY     55  27  34 NW24G30   29.93S
DEVILS LAKE    PTSUNNY   48  36  63 NW28G33   29.98F
$$

NDZ022-023-025-028>030-036>039-047>053-232000-
SOUTHEAST NORTH DAKOTA

CITY           SKY/WX    TMP DP  RH WIND       PRES   REMARKS
FARGO          MOSUNNY   56  32  40 NW28G39   29.93S
JAMESTOWN      SUNNY     54  34  46 NW25G31   30.00F
$$





USA.gov is the U.S. government's official web portal to all federal, state and local government web resources and services.